TimeCST,TemperatureF,Dew PointF,Humidity,Sea Level PressureIn,VisibilityMPH,Wind Direction,Wind SpeedMPH,Gust SpeedMPH,PrecipitationIn,Events,Conditions,WindDirDegrees,DateUTC
12:14 AM,-9.4,-18.4,65,30.61,10.0,North,8.1,-,N/A,,Clear,360,2013-01-24 06:14:00
12:34 AM,-9.4,-18.4,65,30.62,10.0,North,8.1,-,N/A,,Clear,360,2013-01-24 06:34:00
12:53 AM,-9.4,-18.4,65,30.61,10.0,North,6.9,-,N/A,,Clear,10,2013-01-24 06:53:00
1:14 AM,-9.4,-16.6,71,30.62,10.0,North,5.8,-,N/A,,Clear,350,2013-01-24 07:14:00
1:33 AM,-9.4,-16.6,71,30.61,10.0,NNE,5.8,-,N/A,,Clear,20,2013-01-24 07:33:00
1:54 AM,-9.4,-16.6,71,30.62,10.0,North,4.6,-,N/A,,Clear,350,2013-01-24 07:54:00
2:14 AM,-9.4,-16.6,71,30.64,10.0,NW,3.5,-,N/A,,Clear,320,2013-01-24 08:14:00
2:33 AM,-9.4,-16.6,71,30.64,10.0,Calm,Calm,-,N/A,,Clear,0,2013-01-24 08:33:00
2:54 AM,-7.6,-16.6,65,30.63,10.0,North,3.5,-,N/A,,Clear,360,2013-01-24 08:54:00
3:14 AM,-7.6,-16.6,65,30.62,10.0,NNE,4.6,-,N/A,,Clear,30,2013-01-24 09:14:00
3:33 AM,-7.6,-16.6,65,30.60,10.0,NE,4.6,-,N/A,,Clear,50,2013-01-24 09:33:00
3:54 AM,-7.6,-16.6,65,30.60,10.0,ENE,4.6,-,N/A,,Clear,70,2013-01-24 09:54:00
4:14 AM,-7.6,-16.6,65,30.60,10.0,ENE,5.8,-,N/A,,Clear,70,2013-01-24 10:14:00
4:33 AM,-7.6,-16.6,65,30.59,10.0,East,3.5,-,N/A,,Clear,90,2013-01-24 10:33:00
4:54 AM,-7.6,-14.8,71,30.59,10.0,ESE,3.5,-,N/A,,Mostly Cloudy,120,2013-01-24 10:54:00
5:14 AM,-7.6,-14.8,71,30.57,10.0,ESE,6.9,-,N/A,,Mostly Cloudy,120,2013-01-24 11:14:00
5:33 AM,-7.6,-14.8,71,30.59,10.0,SE,3.5,-,N/A,,Overcast,130,2013-01-24 11:33:00
5:54 AM,-5.8,-14.8,65,30.60,10.0,SSE,3.5,-,N/A,,Overcast,150,2013-01-24 11:54:00
6:14 AM,-5.8,-14.8,65,30.61,10.0,South,4.6,-,N/A,,Scattered Clouds,180,2013-01-24 12:14:00
6:33 AM,-5.8,-14.8,65,30.60,10.0,SE,3.5,-,N/A,,Scattered Clouds,140,2013-01-24 12:33:00
6:54 AM,-5.8,-14.8,65,30.60,10.0,SSE,5.8,-,N/A,,Scattered Clouds,150,2013-01-24 12:54:00
7:14 AM,-5.8,-14.8,65,30.59,10.0,SE,8.1,-,N/A,,Clear,140,2013-01-24 13:14:00
7:33 AM,-5.8,-14.8,65,30.55,10.0,ESE,11.5,-,N/A,,Clear,120,2013-01-24 13:33:00
7:54 AM,-5.8,-13.0,71,30.53,10.0,ESE,11.5,-,N/A,,Clear,120,2013-01-24 13:54:00
8:14 AM,-5.8,-13.0,71,30.52,10.0,SE,13.8,-,N/A,,Clear,140,2013-01-24 14:14:00
8:33 AM,-5.8,-13.0,71,30.52,10.0,SE,12.7,-,N/A,,Clear,140,2013-01-24 14:33:00
8:54 AM,-4.0,-11.2,71,30.52,10.0,SE,12.7,-,N/A,,Clear,140,2013-01-24 14:54:00
9:14 AM,-4.0,-11.2,71,30.51,10.0,SSE,13.8,-,N/A,,Clear,150,2013-01-24 15:14:00
9:33 AM,-2.2,-11.2,66,30.51,10.0,SSE,16.1,-,N/A,,Clear,150,2013-01-24 15:33:00
9:53 AM,-2.2,-9.4,71,30.50,10.0,SSE,15.0,-,N/A,,Clear,150,2013-01-24 15:53:00
10:14 AM,-2.2,-9.4,71,30.51,10.0,SSE,15.0,-,N/A,,Clear,160,2013-01-24 16:14:00
10:33 AM,-0.4,-9.4,66,30.49,10.0,SSE,18.4,-,N/A,,Clear,160,2013-01-24 16:33:00
10:53 AM,-0.4,-7.6,72,30.49,10.0,SSE,16.1,-,N/A,,Clear,150,2013-01-24 16:53:00
11:14 AM,-0.4,-7.6,72,30.47,10.0,SSE,17.3,-,N/A,,Clear,150,2013-01-24 17:14:00
11:33 AM,-0.4,-7.6,72,30.45,10.0,SSE,18.4,-,N/A,,Clear,150,2013-01-24 17:33:00
11:53 AM,1.4,-5.8,72,30.43,10.0,SE,17.3,-,N/A,,Clear,140,2013-01-24 17:53:00
12:14 PM,1.4,-5.8,72,30.41,10.0,SSE,18.4,-,N/A,,Clear,150,2013-01-24 18:14:00
12:33 PM,3.2,-5.8,66,30.41,10.0,SSE,17.3,-,N/A,,Clear,150,2013-01-24 18:33:00
12:54 PM,3.2,-4.0,72,30.40,10.0,SSE,15.0,-,N/A,,Clear,150,2013-01-24 18:54:00
1:14 PM,5.0,-2.2,72,30.36,10.0,SSE,18.4,-,N/A,,Clear,150,2013-01-24 19:14:00
1:33 PM,6.8,-2.2,67,30.34,10.0,SE,18.4,-,N/A,,Clear,140,2013-01-24 19:33:00
1:54 PM,6.8,-2.2,67,30.31,10.0,SE,19.6,-,N/A,,Clear,140,2013-01-24 19:54:00
2:14 PM,8.6,-0.4,67,30.30,10.0,SE,16.1,-,N/A,,Clear,140,2013-01-24 20:14:00
2:33 PM,8.6,-0.4,67,30.29,10.0,SE,19.6,-,N/A,,Clear,140,2013-01-24 20:33:00
2:54 PM,8.6,-0.4,67,30.27,10.0,SE,19.6,23.0,N/A,,Clear,140,2013-01-24 20:54:00
3:14 PM,8.6,-0.4,67,30.27,10.0,SE,16.1,21.9,N/A,,Clear,140,2013-01-24 21:14:00
3:33 PM,8.6,-0.4,67,30.25,10.0,SE,19.6,-,N/A,,Clear,140,2013-01-24 21:33:00
3:54 PM,10.4,1.4,67,30.23,10.0,SSE,20.7,-,N/A,,Clear,150,2013-01-24 21:54:00
4:14 PM,10.4,1.4,67,30.21,10.0,SSE,20.7,-,N/A,,Scattered Clouds,150,2013-01-24 22:14:00
4:33 PM,10.4,1.4,67,30.21,10.0,SSE,18.4,-,N/A,,Mostly Cloudy,150,2013-01-24 22:33:00
4:54 PM,10.4,1.4,67,30.22,10.0,SE,20.7,-,N/A,,Mostly Cloudy,140,2013-01-24 22:54:00
5:13 PM,10.4,1.4,67,30.19,10.0,SE,20.7,-,N/A,,Scattered Clouds,140,2013-01-24 23:13:00
5:34 PM,10.4,1.4,67,30.18,10.0,SE,18.4,25.3,N/A,,Clear,140,2013-01-24 23:34:00
5:53 PM,12.2,3.2,67,30.16,10.0,SSE,19.6,-,N/A,,Clear,150,2013-01-24 23:53:00
6:14 PM,12.2,3.2,67,30.18,10.0,SSE,17.3,-,N/A,,Clear,160,2013-01-25 00:14:00
6:34 PM,12.2,3.2,67,30.14,10.0,SSE,23.0,-,N/A,,Clear,160,2013-01-25 00:34:00
6:53 PM,12.2,3.2,67,30.15,10.0,South,18.4,-,N/A,,Clear,170,2013-01-25 00:53:00
7:14 PM,12.2,3.2,67,30.13,10.0,South,17.3,-,N/A,,Mostly Cloudy,170,2013-01-25 01:14:00
7:34 PM,12.2,3.2,67,30.12,10.0,South,17.3,24.2,N/A,,Scattered Clouds,180,2013-01-25 01:34:00
7:53 PM,12.2,3.2,67,30.12,10.0,South,18.4,-,N/A,,Mostly Cloudy,180,2013-01-25 01:53:00
8:14 PM,12.2,3.2,67,30.11,10.0,South,19.6,26.5,N/A,,Scattered Clouds,180,2013-01-25 02:14:00
8:34 PM,12.2,5.0,73,30.12,10.0,South,12.7,-,N/A,,Clear,180,2013-01-25 02:34:00
8:53 PM,12.2,5.0,73,30.13,10.0,South,13.8,-,N/A,,Clear,190,2013-01-25 02:53:00
9:14 PM,14.0,5.0,67,30.12,10.0,South,13.8,-,N/A,,Clear,190,2013-01-25 03:14:00
9:34 PM,14.0,5.0,67,30.12,10.0,South,13.8,-,N/A,,Mostly Cloudy,180,2013-01-25 03:34:00
9:53 PM,14.0,6.8,73,30.12,10.0,South,11.5,-,N/A,,Overcast,190,2013-01-25 03:53:00
10:14 PM,14.0,6.8,73,30.09,10.0,South,12.7,-,N/A,,Mostly Cloudy,180,2013-01-25 04:14:00
10:34 PM,14.0,6.8,73,30.08,10.0,South,10.4,-,N/A,,Scattered Clouds,190,2013-01-25 04:34:00
10:53 PM,12.2,6.8,79,30.07,10.0,South,11.5,-,N/A,,Scattered Clouds,190,2013-01-25 04:53:00
11:14 PM,14.0,6.8,73,30.07,10.0,South,9.2,-,N/A,,Mostly Cloudy,180,2013-01-25 05:14:00
11:34 PM,14.0,6.8,73,30.07,10.0,South,10.4,-,N/A,,Overcast,190,2013-01-25 05:34:00
11:53 PM,14.0,6.8,73,30.06,10.0,South,8.1,-,N/A,,Scattered Clouds,190,2013-01-25 05:53:00